Date String (YYYY-MM-DD hh:mm:ss) UTC,Instrument flags,Ambient pressure (hPa),Sample flow (lpm),Bypass flow (lpm),Sample temperature (°C),Ambient temperature (°C),ASC tube jacket temperature (°C),LED temperature (°C),Box temperature (°C),Sample RH (%),Span deviation,Mass concentration (μg/m³),Mass concentration (μg/m³),Mass concentration (μg/m³)
DateTimeUTC,F1_M11,P_M11,Q1_M11,Q2_M11,T1_M11,T2_M11,T3_M11,T4_M11,T5_M11,U1_M11,ZSPAN_M11,X0_M11,X2_M11,X1_M11
2021-11-15 06:00:00,,0824.8,5.00,0.00,26.4,25.4,00.0,35.4,28.2,15.0,0000.0,0007.13,0001.50,0000.49
2021-11-15 06:01:00,,0824.8,4.99,0.00,26.4,25.4,00.0,35.4,28.2,15.0,0000.0,0007.38,0001.60,0000.50
2021-11-15 06:02:00,,0824.8,5.01,0.00,26.4,25.4,00.0,35.4,28.2,15.0,0000.0,0007.37,0001.59,0000.50
2021-11-15 06:03:00,,0824.8,4.99,0.00,26.4,25.4,00.0,35.4,28.2,15.0,0000.0,0007.28,0001.54,0000.50
2021-11-15 06:04:00,,0824.9,5.01,0.00,26.4,25.4,00.0,35.4,28.2,15.0,0000.0,0005.97,0001.47,0000.50
2021-11-15 06:05:00,,0824.8,5.01,0.00,26.4,25.4,00.0,35.4,28.2,15.1,0000.0,0005.17,0001.41,0000.50
2021-11-15 06:06:00,,0825.0,4.99,0.00,26.4,25.4,00.0,35.4,28.2,15.1,0000.0,0006.00,0001.41,0000.50
2021-11-15 06:07:00,,0825.0,4.99,0.00,26.4,25.4,00.0,35.4,28.2,15.1,0000.0,0005.49,0001.39,0000.50
2021-11-15 06:08:00,,0825.0,5.00,0.00,26.4,25.4,00.0,35.4,28.2,15.1,0000.0,0005.34,0001.34,0000.49
2021-11-15 06:09:00,,0825.0,5.01,0.00,26.3,25.4,00.0,35.4,28.1,15.1,0000.0,0005.87,0001.28,0000.48
2021-11-15 06:10:00,,0824.9,5.01,0.00,26.3,25.5,00.0,35.4,28.1,15.1,0000.0,0005.47,0001.23,0000.48
2021-11-15 06:11:00,,0824.8,5.01,0.00,26.3,25.5,00.0,35.4,28.2,15.1,0000.0,0005.17,0001.19,0000.47
2021-11-15 06:12:00,,0824.6,4.99,0.00,26.3,25.5,00.0,35.4,28.2,15.1,0000.0,0004.92,0001.13,0000.47
2021-11-15 06:13:00,,0824.7,5.01,0.00,26.3,25.4,00.0,35.4,28.2,15.1,0000.0,0005.81,0001.13,0000.46
2021-11-15 06:14:00,,0824.7,4.99,0.00,26.3,25.4,00.0,35.4,28.2,15.1,0000.0,0006.69,0001.12,0000.45
2021-11-15 06:15:00,,0824.9,4.99,0.00,26.3,25.4,00.0,35.4,28.2,15.2,0000.0,0007.31,0001.12,0000.45
2021-11-15 06:16:00,,0824.9,4.99,0.00,26.3,25.4,00.0,35.4,28.1,15.2,0000.0,0007.21,0001.15,0000.45
2021-11-15 06:17:00,,0824.5,5.01,0.00,26.3,25.4,00.0,35.4,28.1,15.2,0000.0,0006.49,0001.20,0000.45
2021-11-15 06:18:00,,0824.9,4.98,0.00,26.3,25.4,00.0,35.4,28.2,15.2,0000.0,0006.81,0001.28,0000.47
2021-11-15 06:19:00,,0824.9,5.01,0.00,26.3,25.4,00.0,35.4,28.1,15.2,0000.0,0006.81,0001.35,0000.48
2021-11-15 06:20:00,,0825.0,5.01,0.00,26.3,25.4,00.0,35.4,28.1,15.2,0000.0,0006.72,0001.35,0000.48
2021-11-15 06:21:00,,0825.0,4.98,0.00,26.3,25.4,00.0,35.4,28.1,15.2,0000.0,0007.26,0001.33,0000.49
2021-11-15 06:22:00,,0825.0,5.02,0.00,26.3,25.4,00.0,35.4,28.1,15.2,0000.0,0007.68,0001.36,0000.49
2021-11-15 06:23:00,,0825.0,5.00,0.00,26.3,25.4,00.0,35.4,28.1,15.2,0000.0,0008.26,0001.31,0000.49
2021-11-15 06:24:00,,0825.1,4.99,0.00,26.3,25.4,00.0,35.4,28.1,15.2,0000.0,0007.69,0001.29,0000.50
2021-11-15 06:25:00,,0825.0,5.01,0.00,26.3,25.4,00.0,35.4,28.1,15.2,0000.0,0007.14,0001.29,0000.51
2021-11-15 06:26:00,,0825.0,4.98,0.00,26.3,25.4,00.0,35.4,28.1,15.2,0000.0,0007.01,0001.29,0000.50
2021-11-15 06:27:00,,0825.0,4.99,0.00,26.3,25.4,00.0,35.4,28.1,15.2,0000.0,0006.96,0001.30,0000.49
2021-11-15 06:28:00,,0825.0,5.01,0.00,26.3,25.4,00.0,35.4,28.1,15.2,0000.0,0006.82,0001.25,0000.48
2021-11-15 06:29:00,,0825.0,5.00,0.00,26.3,25.4,00.0,35.4,28.1,15.2,0000.0,0006.59,0001.20,0000.47
2021-11-15 06:30:00,,0824.8,5.00,0.00,26.3,25.4,00.0,35.4,28.1,15.2,0000.0,0007.55,0001.24,0000.46
2021-11-15 06:31:00,,0824.8,4.99,0.00,26.3,25.4,00.0,35.4,28.1,15.2,0000.0,0007.53,0001.34,0000.47
2021-11-15 06:32:00,,0824.8,5.00,0.00,26.3,25.4,00.0,35.4,28.2,15.2,0000.0,0007.30,0001.41,0000.48
2021-11-15 06:33:00,,0824.9,5.00,0.00,26.3,25.3,00.0,35.4,28.1,15.2,0000.0,0006.94,0001.40,0000.48
2021-11-15 06:34:00,,0825.0,4.99,0.00,26.3,25.3,00.0,35.4,28.1,15.2,0000.0,0005.86,0001.51,0000.50
2021-11-15 06:35:00,,0825.0,5.00,0.00,26.3,25.3,00.0,35.4,28.1,15.2,0000.0,0005.95,0001.57,0000.51
2021-11-15 06:36:00,,0825.1,5.01,0.00,26.3,25.3,00.0,35.4,28.1,15.2,0000.0,0005.96,0001.63,0000.51
2021-11-15 06:37:00,,0825.1,5.00,0.00,26.3,25.3,00.0,35.4,28.1,15.2,0000.0,0005.47,0001.59,0000.51
2021-11-15 06:38:00,,0825.2,5.00,0.00,26.3,25.3,00.0,35.3,28.1,15.2,0000.0,0005.15,0001.50,0000.51
2021-11-15 06:39:00,,0825.3,5.01,0.00,26.3,25.3,00.0,35.3,28.1,15.2,0000.0,0005.12,0001.47,0000.51
2021-11-15 06:40:00,,0825.3,4.99,0.00,26.3,25.3,00.0,35.3,28.1,15.2,0000.0,0004.92,0001.41,0000.51
2021-11-15 06:41:00,,0825.3,4.99,0.00,26.3,25.3,00.0,35.3,28.1,15.1,0000.0,0003.97,0001.34,0000.51
2021-11-15 06:42:00,,0825.4,5.00,0.00,26.3,25.4,00.0,35.3,28.1,15.1,0000.0,0002.87,0001.29,0000.51
2021-11-15 06:43:00,,0825.4,5.00,0.00,26.3,25.4,00.0,35.3,28.1,15.2,0000.0,0002.78,0001.26,0000.50
2021-11-15 06:44:00,,0825.4,5.01,0.00,26.3,25.4,00.0,35.3,28.1,15.2,0000.0,0002.56,0001.21,0000.48
2021-11-15 06:45:00,,0825.5,5.00,0.00,26.3,25.4,00.0,35.3,28.0,15.2,0000.0,0002.33,0001.10,0000.47
2021-11-15 06:46:00,,0825.5,4.99,0.00,26.3,25.4,00.0,35.3,28.1,15.1,0000.0,0002.28,0001.03,0000.45
2021-11-15 06:47:00,,0825.6,4.99,0.00,26.3,25.4,00.0,35.3,28.1,15.1,0000.0,0002.23,0000.93,0000.44
2021-11-15 06:48:00,,0825.6,5.00,0.00,26.3,25.4,00.0,35.3,28.0,15.1,0000.0,0002.18,0000.90,0000.43
2021-11-15 06:49:00,,0825.6,5.02,0.00,26.2,25.4,00.0,35.3,28.1,15.1,0000.0,0002.19,0000.91,0000.43
2021-11-15 06:50:00,,0825.6,5.00,0.00,26.3,25.4,00.0,35.3,28.1,15.0,0000.0,0002.05,0000.89,0000.42
2021-11-15 06:51:00,,0825.7,4.99,0.00,26.2,25.4,00.0,35.3,28.1,15.1,0000.0,0002.04,0000.88,0000.41
2021-11-15 06:52:00,,0825.7,5.00,0.00,26.3,25.4,00.0,35.3,28.1,15.0,0000.0,0002.01,0000.87,0000.42
2021-11-15 06:53:00,,0825.6,5.00,0.00,26.3,25.5,00.0,35.3,28.1,15.0,0000.0,0001.87,0000.81,0000.41
2021-11-15 06:54:00,,0825.9,4.99,0.00,26.3,25.5,00.0,35.3,28.1,15.0,0000.0,0001.78,0000.77,0000.40
2021-11-15 06:55:00,,0825.8,5.01,0.00,26.3,25.5,00.0,35.3,28.1,15.0,0000.0,0001.69,0000.74,0000.40
2021-11-15 06:56:00,,0826.0,4.99,0.00,26.3,25.5,00.0,35.3,28.1,14.9,0000.0,0001.53,0000.69,0000.39
2021-11-15 06:57:00,,0825.7,5.02,0.00,26.3,25.4,00.0,35.3,28.0,14.9,0000.0,0001.37,0000.67,0000.38
2021-11-15 06:58:00,,0825.6,4.99,0.00,26.3,25.4,00.0,35.3,28.0,14.8,0000.0,0001.17,0000.64,0000.38
2021-11-15 06:59:00,,0825.6,5.00,0.00,26.3,25.5,00.0,35.3,28.1,14.6,0000.0,0001.13,0000.63,0000.37
